Weather History for Shishmaref, AK

Change the Weather History Date:

Monday, May 27, 2013

  Actual Average Record
Temperature  
Mean Temperature 30 °F -  
Max Temperature 33 °F 33 °F 46 °F (2006)
Min Temperature 28 °F 26 °F 15 °F (2001)
Degree Days  
Heating Degree Days 34    
Moisture  
Dew Point 30 °F    
Average Humidity 94    
Maximum Humidity 100    
Minimum Humidity 87    
Precipitation  
Precipitation 0.00 in - - ()
Sea Level Pressure  
Sea Level Pressure 30.02 in    
Wind  
Wind Speed 6 mph (NW)    
Max Wind Speed 10 mph    
Max Gust Speed -    
Visibility 6 miles    
Events      
Averages and records for this station are not official NWS values.
T = Trace of Precipitation, MM = Missing Value Source: NWS Daily Summary

Daily Weather History Graph

Daily Weather History Graph

Search for Another Location

Airport:

Trip Planner

Search our weather history database for the weather conditions in past years. The results will help you decide how hot, cold, wet, or windy it might be!

Date:

Astronomy

May. 27, 2013 Rise Set
Actual Time 4:28 AM AKDT 1:38 AM AKDT
Civil Twilight Sun does not rise Sun does not rise
Nautical Twilight Sun does not rise Sun does not rise
Astronomical Twilight Sun does not rise Sun does not rise
Moon 2:49 AM AKDT (5/27) 8:09 AM AKDT (5/27)
Length of Visible Light 24h 00m
Length of Day
21h 09m
Waning Gibbous, 90% of the Moon is Illuminated
May 27
Waning Gibbous
May 31
Last Quarter
Jun 8
New
Jun 16
First Quarter
Jun 23
Full

Hourly Weather History & Observations

Time (AKDT) Temp. Windchill Dew Point Humidity Pressure Visibility Wind Dir Wind Speed Gust Speed Precip Events Conditions
12:16 AM 33.8 °F 27.7 °F 30.2 °F 87% 30.01 in 10.0 mi NNW 6.9 mph - N/A   Overcast
12:36 AM 33.8 °F 27.0 °F 30.2 °F 87% 30.00 in 10.0 mi North 8.1 mph - N/A   Overcast
12:56 AM 32.0 °F 26.4 °F 30.2 °F 93% 30.01 in 10.0 mi NNW 5.8 mph - N/A   Overcast
1:16 AM 32.0 °F 27.5 °F 30.2 °F 93% 30.01 in 10.0 mi NW 4.6 mph - N/A   Partly Cloudy
1:36 AM 32.0 °F 27.5 °F 30.2 °F 93% 30.01 in 10.0 mi NNW 4.6 mph - N/A   Clear
1:56 AM 30.2 °F 24.3 °F 28.4 °F 93% 30.01 in 10.0 mi NNW 5.8 mph - N/A   Clear
2:16 AM 30.2 °F 24.3 °F 28.4 °F 93% 30.01 in 10.0 mi NNW 5.8 mph - N/A   Clear
2:36 AM 30.2 °F 25.4 °F 28.4 °F 93% 30.01 in 10.0 mi NW 4.6 mph - N/A   Clear
2:56 AM 30.2 °F 26.7 °F 28.4 °F 93% 30.01 in 10.0 mi NW 3.5 mph - N/A   Clear
3:16 AM 30.2 °F 26.7 °F 28.4 °F 93% 30.01 in 10.0 mi NW 3.5 mph - N/A   Clear
3:36 AM 30.2 °F 24.3 °F 28.4 °F 93% 30.02 in 10.0 mi West 5.8 mph - N/A   Clear
3:56 AM 30.2 °F 24.3 °F 28.4 °F 93% 30.02 in 10.0 mi WNW 5.8 mph - N/A   Clear
4:16 AM 30.2 °F 26.7 °F 28.4 °F 93% 30.01 in 10.0 mi WNW 3.5 mph - N/A   Clear
4:36 AM 30.2 °F - 28.4 °F 93% 30.01 in 10.0 mi Calm Calm - N/A   Clear
4:56 AM 30.2 °F 25.4 °F 30.2 °F 100% 30.01 in 10.0 mi West 4.6 mph - N/A   Clear
5:16 AM 30.2 °F 26.7 °F 28.4 °F 93% 30.01 in 10.0 mi West 3.5 mph - N/A   Clear
5:36 AM 30.2 °F 24.3 °F 28.4 °F 93% 30.01 in 10.0 mi West 5.8 mph - N/A   Mostly Cloudy
5:56 AM 30.2 °F 24.3 °F 30.2 °F 100% 30.01 in 10.0 mi West 5.8 mph - N/A   Overcast
6:16 AM 30.2 °F 24.3 °F 30.2 °F 100% 30.01 in 10.0 mi West 5.8 mph - N/A   Mostly Cloudy
6:36 AM 30.2 °F 24.3 °F 28.4 °F 93% 30.01 in 10.0 mi West 5.8 mph - N/A   Partly Cloudy
6:56 AM 30.2 °F 25.4 °F 28.4 °F 93% 30.02 in 10.0 mi West 4.6 mph - N/A   Partly Cloudy
7:16 AM 30.2 °F 24.3 °F 28.4 °F 93% 30.02 in 10.0 mi West 5.8 mph - N/A   Clear
7:36 AM 30.2 °F 24.3 °F 28.4 °F 93% 30.02 in 10.0 mi West 5.8 mph - N/A   Clear
7:56 AM 30.2 °F 25.4 °F 30.2 °F 100% 30.02 in 10.0 mi WNW 4.6 mph - N/A   Clear
8:16 AM 30.2 °F 24.3 °F 28.4 °F 93% 30.02 in 10.0 mi WNW 5.8 mph - N/A   Clear
8:36 AM 30.2 °F 25.4 °F 28.4 °F 93% 30.02 in 10.0 mi West 4.6 mph - N/A   Clear
8:56 AM 30.2 °F 25.4 °F 30.2 °F 100% 30.02 in 10.0 mi WNW 4.6 mph - N/A   Clear
9:16 AM 30.2 °F 24.3 °F 30.2 °F 100% 30.02 in 10.0 mi WNW 5.8 mph - N/A   Clear
9:36 AM 32.0 °F 26.4 °F 30.2 °F 93% 30.02 in 10.0 mi WNW 5.8 mph - N/A   Clear
9:56 AM 32.0 °F 26.4 °F 30.2 °F 93% 30.03 in 10.0 mi NW 5.8 mph - N/A   Clear
10:16 AM 32.0 °F 26.4 °F 30.2 °F 93% 30.03 in 10.0 mi WNW 5.8 mph - N/A   Clear
10:36 AM 32.0 °F 26.4 °F 32.0 °F 100% 30.03 in 10.0 mi WNW 5.8 mph - N/A   Clear
10:56 AM 33.8 °F 29.6 °F 30.2 °F 87% 30.03 in 10.0 mi NW 4.6 mph - N/A   Mostly Cloudy
11:16 AM 33.8 °F 29.6 °F 32.0 °F 93% 30.03 in 10.0 mi NW 4.6 mph - N/A   Overcast
11:36 AM 33.8 °F 29.6 °F 30.2 °F 87% 30.03 in 10.0 mi NW 4.6 mph - N/A   Overcast
11:56 AM 33.8 °F 28.6 °F 32.0 °F 93% 30.03 in 10.0 mi NW 5.8 mph - N/A   Overcast
12:16 PM 33.8 °F 29.6 °F 30.2 °F 87% 30.03 in 10.0 mi NW 4.6 mph - N/A   Overcast
12:36 PM 33.8 °F 29.6 °F 32.0 °F 93% 30.03 in 10.0 mi NW 4.6 mph - N/A   Mostly Cloudy
12:56 PM 33.8 °F 28.6 °F 30.2 °F 87% 30.03 in 10.0 mi WNW 5.8 mph - N/A   Mostly Cloudy
1:16 PM 33.8 °F 28.6 °F 30.2 °F 87% 30.03 in 10.0 mi WNW 5.8 mph - N/A   Mostly Cloudy
1:36 PM 33.8 °F 28.6 °F 30.2 °F 87% 30.03 in 10.0 mi WNW 5.8 mph - N/A   Scattered Clouds
1:56 PM 33.8 °F 29.6 °F 30.2 °F 87% 30.03 in 10.0 mi WNW 4.6 mph - N/A   Clear
2:16 PM 33.8 °F 29.6 °F 30.2 °F 87% 30.03 in 10.0 mi NW 4.6 mph - N/A   Clear
2:36 PM 33.8 °F 27.7 °F 32.0 °F 93% 30.03 in 10.0 mi NW 6.9 mph - N/A   Clear
2:56 PM 33.8 °F 27.7 °F 32.0 °F 93% 30.03 in 10.0 mi NW 6.9 mph - N/A   Clear
3:16 PM 33.8 °F 27.0 °F 30.2 °F 87% 30.03 in 7.0 mi NW 8.1 mph - N/A   Scattered Clouds
3:36 PM 32.0 °F 24.8 °F 30.2 °F 93% 30.03 in 0.2 mi NW 8.1 mph - N/A   Overcast
3:56 PM 32.0 °F 24.8 °F 30.2 °F 93% 30.03 in 0.2 mi NW 8.1 mph - N/A   Overcast
4:16 PM 32.0 °F 24.8 °F 30.2 °F 93% 30.03 in 0.2 mi NW 8.1 mph - N/A   Overcast
4:36 PM 32.0 °F 24.2 °F 30.2 °F 93% 30.03 in 0.2 mi NW 9.2 mph - N/A   Overcast
4:56 PM 32.0 °F 24.2 °F 30.2 °F 93% 30.03 in 0.2 mi NW 9.2 mph - N/A   Overcast
5:16 PM 32.0 °F 24.8 °F 30.2 °F 93% 30.03 in 0.2 mi NNW 8.1 mph - N/A   Overcast
5:36 PM 32.0 °F 24.2 °F 30.2 °F 93% 30.02 in 0.2 mi NW 9.2 mph - N/A   Overcast
5:56 PM 30.2 °F 22.6 °F 30.2 °F 100% 30.03 in 0.2 mi NW 8.1 mph - N/A   Overcast
6:16 PM 32.0 °F 25.6 °F 30.2 °F 93% 30.02 in 0.2 mi NNW 6.9 mph - N/A   Overcast
6:36 PM 30.2 °F 22.6 °F 30.2 °F 100% 30.02 in 0.2 mi NW 8.1 mph - N/A   Overcast
6:56 PM 32.0 °F 24.2 °F 30.2 °F 93% 30.02 in 0.2 mi NW 9.2 mph - N/A   Overcast
7:16 PM 30.2 °F 21.3 °F 28.4 °F 93% 30.02 in 0.2 mi NW 10.4 mph - N/A   Overcast
7:36 PM 30.2 °F 21.3 °F 30.2 °F 100% 30.01 in 0.2 mi NW 10.4 mph - N/A   Overcast
7:56 PM 30.2 °F 21.9 °F 30.2 °F 100% 30.02 in 0.2 mi NNW 9.2 mph - N/A   Overcast
8:16 PM 30.2 °F 21.9 °F 30.2 °F 100% 30.02 in 0.2 mi NW 9.2 mph - N/A   Overcast
8:36 PM 30.2 °F 22.6 °F 28.4 °F 93% 30.02 in 0.2 mi NW 8.1 mph - N/A   Overcast
8:56 PM 30.2 °F 22.6 °F 30.2 °F 100% 30.02 in 0.2 mi NNW 8.1 mph - N/A   Overcast
9:16 PM 30.2 °F 22.6 °F 28.4 °F 93% 30.02 in 0.2 mi NW 8.1 mph - N/A   Overcast
9:36 PM 30.2 °F 22.6 °F 28.4 °F 93% 30.03 in 0.2 mi NNW 8.1 mph - N/A   Overcast
9:56 PM 30.2 °F 23.4 °F 28.4 °F 93% 30.03 in 0.2 mi NW 6.9 mph - N/A   Overcast
10:16 PM 30.2 °F 24.3 °F 28.4 °F 93% 30.03 in 0.2 mi NW 5.8 mph - N/A   Overcast
10:36 PM 30.2 °F 24.3 °F 28.4 °F 93% 30.03 in 0.2 mi NW 5.8 mph - N/A   Overcast
10:56 PM 30.2 °F 24.3 °F 28.4 °F 93% 30.03 in 0.2 mi NW 5.8 mph - N/A   Overcast
11:16 PM 28.4 °F 22.2 °F 28.4 °F 100% 30.03 in 0.2 mi NW 5.8 mph - N/A   Overcast
11:36 PM 28.4 °F 23.3 °F 26.6 °F 93% 30.04 in 0.2 mi NW 4.6 mph - N/A   Overcast
11:56 PM 28.4 °F 23.3 °F 28.4 °F 100% 30.04 in 0.2 mi NW 4.6 mph - N/A   Overcast